Regional Weather Roundup
Issued by NWS Upton, NY

Current Version | Previous Version | Text Only | Print | Product List | Glossary On
Versions: 1 2 3 4 5 6 7 8 9 10 11 12 13 14 15 16 17 18 19 20 21 22 23 24 25 26 27 28 29 30 31 32 33 34 35 36 37 38 39 40 41 42 43 44 45 46 47 48 49 50
000
ASUS41 KOKX 300504
RWROKX

REGIONAL WEATHER ROUNDUP
NATIONAL WEATHER SERVICE NEW YORK NY
100 AM EDT SUN AUG 30 2015

NOTE: "FAIR" INDICATES FEW OR NO CLOUDS BELOW 12,000 FEET WITH NO
SIGNIFICANT WEATHER AND/OR OBSTRUCTIONS TO VISIBILITY.

NYZ071-072-176-178-NJZ106-104-300600-
NEW YORK CITY METRO AREA


CITY           SKY/WX    TMP DP  RH WIND       PRES   REMARKS
CENTRAL PARK   PTCLDY    75  58  55 VRB6G18   30.14R
LAGUARDIA APRT MOCLDY    76  58  53 SW12      30.11R
KENNEDY INTL   MOCLDY    74  62  66 SW14      30.13R
NEWARK/LIBERTY MOCLDY    74  59  59 SW10      30.12R
BRNX BOT. GARD   N/A     73  59  60 SW7       30.11F
TETERBORO      PTCLDY    72  60  66 SW5       30.11R
$$

NYZ177-179-078>081-300600-
LONG ISLAND NEW YORK

CITY           SKY/WX    TMP DP  RH WIND       PRES   REMARKS
FARMINGDALE    MOCLDY    74  64  71 SW9       30.12S
ISLIP          MOCLDY    73  65  75 SW10      30.11R
SHIRLEY        MOCLDY    73  65  75 SW8       30.13R
WESTHAMPTON    MOCLDY    74  66  76 SW6       30.14S
MONTAUK POINT    N/A     73  65  75 SW6       30.13S
$$

NYZ052-065-067-300600-
HUDSON VALLEY

CITY           SKY/WX    TMP DP  RH WIND       PRES   REMARKS
WHITE PLAINS   PTCLDY    66  62  87 CALM      30.12R
NEWBURGH       MOCLDY    66  63  88 CALM      30.12S
MONTGOMERY     PTCLDY    63  61  93 CALM      30.11R
POUGHKEEPSIE   PTCLDY    65  61  87 CALM      30.09S
ALBANY         PTCLDY    65  60  84 CALM      30.09R
$$

NJZ001-105-106-008-010-013-015-019>022-104-300600-
NEW JERSEY

CITY           SKY/WX    TMP DP  RH WIND       PRES   REMARKS
NEWARK/LIBERTY MOCLDY    74  59  59 SW10      30.12R
TETERBORO      PTCLDY    72  60  66 SW5       30.11R
CALDWELL       PTCLDY    69  59  70 CALM      30.12S
MORRISTOWN     PTCLDY    61  55  82 CALM      30.12S
SOMERVILLE     MOCLDY    64  60  87 CALM      30.11R
SUSSEX         PTCLDY    61  59  93 CALM      30.12S FOG
ANDOVER          N/A     62  61  96 S3        30.13S
TRENTON        MOCLDY    71  61  70 SW3       30.12S
MILLVILLE      PTCLDY    68  63  84 CALM      30.13F
ATLANTIC CITY  MOCLDY    71  63  75 SW5       30.14S
WRIGHTSTOWN    MOCLDY    66  62  86 S3        30.11S
TOMS RIVER     MOCLDY    68  61  77 SW5       30.14R
BELMAR         MOCLDY    70  57  64 SW5       30.13S
$$

PAZ047>061-062-071-300600-
EASTERN PENNSYLVANIA

CITY           SKY/WX    TMP DP  RH WIND       PRES   REMARKS
PHILADELPHIA   MOCLDY    74  62  66 SW6       30.13S
ALLENTOWN      PTCLDY    67  63  87 CALM      30.12S
SCRANTON       PTCLDY    64  58  80 E5        30.13R
$$

CTZ002-004>006-009-010-012-RIZ004-006-007-MAZ004-011-015-300600-
SOUTHERN NEW ENGLAND
 IN CT

CITY           SKY/WX    TMP DP  RH WIND       PRES   REMARKS
BRADLEY INTL   MOCLDY    67  59  75 S6        30.09S
HARTFORD       MOCLDY    68  63  84 S3        30.10S
DANBURY        PTCLDY    66  60  81 CALM      30.13S
WTRBRY/OXFORD  MOCLDY    66  57  72 SW3       30.14S
BRIDGEPORT     MOCLDY    75  66  73 SW8       30.11S
MERIDEN        MOCLDY    63  58  83 CALM      30.11S
NEW HAVEN      CLOUDY    73  66  78 S6        30.11F
CHESTER        NOT AVBL
GROTON         PTCLDY    71  66  84 SW6       30.11S
WILLIMANTIC    PTCLDY    62  59  90 CALM      30.12S

 IN RI

CITY           SKY/WX    TMP DP  RH WIND       PRES   REMARKS
PROVIDENCE     PTCLDY    68  63  84 W7        30.11S
BLOCK ISLAND   PTCLDY    70  66  88 SW7       30.13S
WESTERLY       PTCLDY    68  64  87 CALM      30.12S

 IN MA

CITY           SKY/WX    TMP DP  RH WIND       PRES   REMARKS
BOSTON         CLOUDY    71  59  65 SW9       30.08F
WORCESTER      CLOUDY    64  57  78 SW10      30.12F
WESTFIELD      MOCLDY    63  60  90 CALM      30.10S
PROVINCETOWN   MOCLDY    68  59  73 SW10      30.10F
NANTUCKET      PTCLDY    68  64  87 SW6       30.12F
$$

ANZ330-335-338-340-345-350-353-355-300600-
COASTAL MARINE OBSERVATIONS


STATION/POSITION TIME  SKY/WX   TEMP    WIND        PRES    VSBY  WAVE
                                AIR SEA DIR/SP/G                  HT/PER
                 (UTC)          (F)     (DEG/KT/KT) (MB)    (MI)  (FT/S)
NY HARB ENTRANCE 0350            75 76  220/ 17/ 21 1019.3          4/10
4S FIRE IS       NOT AVBL
20S FIRE ISLAND  0350            75 75  220/ 14/ 16 1019.7          3/11
GREAT SOUTH BAY  0400            75 78  240/ 12/ 14   N/A
23SW MTP         0450            74 73  240/ 12/ 14 1019.7          3/11
HUDSON CANYON    NOT AVBL
KINGS POINT      NOT AVBL
EXECUTION ROCKS  0400            75     190/ 10/ 14   N/A
CENTRAL LI SOUND NOT AVBL
EASTERN LI SOUND 0400            71 70  250/  4/  6   N/A
ROBBINS REEF     NOT AVBL
$$


>>>>>>>>>>>>>>>>>>>>>>>>>>>> KEY <<<<<<<<<<<<<<<<<<<<<<<<<<<
>                                                          <
>     SKY/WX - SKY CONDITION/PRESENT WEATHER               <
>     TMP    - TEMPERATURE IN FAHRENHEIT                   <
>     DP     - DEWPOINT IN FAHRENHEIT                      <
>     RH     - RELATIVE HUMIDITY IN PERCENT                <
>     WIND   - DIRECTION AND SPEED IN MPH                  <
>     PRES   - MEAN SEA LEVEL PRESSURE IN INCHES OF HG     <
>     WCI    - WIND CHILL INDEX                            <
>     VSB    - VISIBILITY IN MILES                         <
>     HX     - HEAT INDEX                                  <
>     TC     - TEMPERATURE IN CELSIUS                      <
>     VRB    - VARIABLE WIND DIRECTION                     <
>                                                          <
>>>>>>>>>>>>>>>>>>>>>>>>>>>> KEY <<<<<<<<<<<<<<<<<<<<<<<<<<<





USA.gov is the U.S. government's official web portal to all federal, state and local government web resources and services.